EW0200 Weather Reports


time (UTC)temp
C
wind
direction
speed
KPH
gust
KPH
rain 1hr
cm
rain 24hr
cm
rain mn
cm
humidity
%
barometer
mb
20260906113323 17 346 0.0 0.0 0.00 0.00 0.00 98 1020.2
20260906112319 17 346 0.0 0.0 0.00 0.00 0.00 98 1020.2
20260906111315 17 53 0.0 0.0 0.00 0.00 0.00 98 1020.0
20260906110314 17 53 0.0 0.0 0.00 0.00 0.00 98 1019.8
20260906105338 17 68 0.0 1.6 0.00 0.00 0.00 99 1019.6
20260906104333 16 141 0.0 0.0 0.00 0.00 0.00 98 1019.2
20260906103311 17 141 0.0 0.0 0.00 0.00 0.00 98 1019.2
20260906102357 17 141 0.0 0.0 0.00 0.00 0.00 97 1019.2
20260906101317 17 141 0.0 0.0 0.00 0.00 0.00 98 1019.3
20260906100315 17 141 0.0 0.0 0.00 0.00 0.00 98 1019.3
20260906095316 17 141 0.0 0.0 0.00 0.00 0.00 98 1019.2
20260906094312 17 141 0.0 0.0 0.00 0.00 0.00 98 1019.3
20260906093312 17 141 0.0 0.0 0.00 0.00 0.00 98 1019.4
20260906092354 17 141 0.0 0.0 0.00 0.00 0.00 98 1019.4
20260906091330 17 144 0.0 0.0 0.00 0.00 0.00 98 1019.3
20260906090328 17 144 0.0 0.0 0.00 0.00 0.00 98 1019.2
20260906085325 17 144 0.0 0.0 0.00 0.00 0.00 98 1019.2
20260906084326 18 144 0.0 0.0 0.00 0.00 0.00 98 1019.3
20260906083327 18 144 0.0 0.0 0.00 0.00 0.00 98 1019.3
20260906082328 18 144 0.0 0.0 0.00 0.00 0.00 98 1019.1
20260906081329 18 145 0.0 0.0 0.00 0.00 0.00 98 1019.1
20260906080345 18 145 0.0 0.0 0.00 0.00 0.00 98 1019.2
20260906075326 18 144 0.0 0.0 0.00 0.00 0.00 98 1019.3
20260906074353 18 144 0.0 0.0 0.00 0.00 0.00 98 1019.3
20260906073333 18 144 0.0 0.0 0.00 0.00 0.00 98 1019.2
20260906072330 18 144 0.0 0.0 0.00 0.00 0.00 98 1019.0
20260906071329 17 144 0.0 0.0 0.00 0.00 0.00 97 1019.2
20260906070328 18 144 0.0 0.0 0.00 0.00 0.00 97 1019.2
20260906065326 18 144 0.0 0.0 0.00 0.00 0.00 97 1019.3
20260906064343 18 165 0.0 0.0 0.00 0.00 0.00 97 1019.1
20260906063321 18 205 0.0 0.0 0.00 0.00 0.00 97 1019.2
20260906062342 18 205 0.0 0.0 0.00 0.00 0.00 97 1019.3
20260906061317 18 205 0.0 0.0 0.00 0.00 0.00 97 1019.3
20260906060314 19 206 0.0 0.0 0.00 0.00 0.00 97 1019.4
20260906055329 19 206 0.0 0.0 0.00 0.00 0.00 97 1019.3
20260906054335 19 206 0.0 0.0 0.00 0.00 0.00 97 1019.2
20260906053326 19 206 0.0 0.0 0.00 0.00 0.00 97 1019.2
20260906052328 20 206 0.0 0.0 0.00 0.00 0.00 97 1019.1
20260906051347 20 206 0.0 0.0 0.00 0.00 0.00 97 1019.1
20260906050330 20 216 0.0 0.0 0.00 0.00 0.00 97 1019.1
20260906045326 20 217 0.0 0.0 0.00 0.00 0.00 96 1019.3
20260906044344 20 222 0.0 0.0 0.00 0.00 0.00 96 1019.3
20260906043321 20 222 0.0 0.0 0.00 0.00 0.00 95 1019.2
20260906042346 20 222 0.0 0.0 0.00 0.00 0.00 95 1019.0
20260906041323 20 222 0.0 0.0 0.00 0.00 0.00 95 1018.9
20260906040342 20 222 0.0 0.0 0.00 0.00 0.00 95 1018.9
20260906035316 20 222 0.0 0.0 0.00 0.00 0.00 95 1018.8
20260906034313 20 222 0.0 0.0 0.00 0.00 0.00 95 1018.6
20260906033330 20 222 0.0 0.0 0.00 0.00 0.00 95 1018.3
20260906032331 20 222 0.0 0.0 0.00 0.00 0.00 95 1018.1
20260906031324 21 222 0.0 0.0 0.00 0.00 0.00 95 1018.1
20260906030327 21 222 0.0 0.0 0.00 0.00 0.00 94 1018.0
20260906025341 21 222 0.0 0.0 0.00 0.00 0.00 94 1018.2
20260906024316 21 222 0.0 0.0 0.00 0.00 0.00 94 1018.1
20260906023316 21 222 0.0 0.0 0.00 0.00 0.00 94 1018.0
20260906022318 21 222 0.0 0.0 0.00 0.00 0.00 93 1017.9
20260906021336 21 222 0.0 0.0 0.00 0.00 0.00 93 1017.7
20260906020335 21 222 0.0 0.0 0.00 0.00 0.00 93 1017.5
20260906015330 21 222 0.0 0.0 0.00 0.00 0.00 92 1017.2
20260906014347 22 222 0.0 0.0 0.00 0.00 0.00 92 1017.0
20260906013320 22 153 0.0 0.0 0.00 0.00 0.00 91 1016.8
20260906012321 22 153 0.0 0.0 0.00 0.00 0.00 91 1017.1
20260906011317 22 137 0.0 0.0 0.00 0.00 0.00 90 1017.0
20260906010318 22 137 0.0 0.0 0.00 0.00 0.00 90 1016.9
20260906005320 22 137 0.0 0.0 0.00 0.00 0.00 89 1017.0
20260906004320 23 137 0.0 0.0 0.00 0.00 0.00 88 1016.9
20260906003322 23 137 0.0 0.0 0.00 0.00 0.00 86 1016.9
20260906002321 24 137 0.0 0.0 0.00 0.00 0.00 85 1016.9
20260906001339 25 137 0.0 0.0 0.00 0.00 0.00 83 1016.9
20260906000319 25 137 0.0 0.0 0.00 0.00 0.00 81 1016.9
20260905235320 26 143 0.0 0.0 0.00 0.00 0.00 79 1017.0
20260905234320 26 143 0.0 1.6 0.00 0.00 0.00 81 1017.1
20260905233322 26 148 0.0 11.3 0.00 0.00 0.00 82 1017.1
20260905232350 26 107 0.0 8.0 0.00 0.00 0.00 81 1017.1
20260905231326 27 68 1.6 6.4 0.00 0.00 0.00 78 1017.2
20260905230344 27 110 0.0 3.2 0.00 0.00 0.00 79 1017.0
20260905225320 26 143 1.6 19.3 0.00 0.00 0.00 83 1017.1
20260905224343 25 68 11.3 19.3 0.00 0.00 0.00 83 1017.1
20260905223322 25 68 8.0 19.3 0.00 0.00 0.00 82 1017.1
20260905222321 26 65 11.3 16.1 0.00 0.00 0.00 83 1016.9
20260905221339 25 58 3.2 12.9 0.00 0.00 0.00 83 1016.8
20260905220317 25 64 11.3 17.7 0.00 0.00 0.00 84 1016.8
20260905215317 25 60 9.7 12.9 0.00 0.00 0.00 83 1016.7
20260905214317 25 62 9.7 14.5 0.00 0.00 0.00 83 1016.6
20260905213316 25 54 4.8 8.0 0.00 0.00 0.00 84 1016.8
20260905212342 25 52 6.4 11.3 0.00 0.00 0.00 85 1017.0
20260905211338 25 64 8.0 12.9 0.00 0.00 0.00 85 1017.1
20260905210315 25 58 4.8 9.7 0.00 0.00 0.00 85 1017.0
20260905205316 25 58 9.7 16.1 0.00 0.00 0.00 86 1017.2
20260905204317 25 60 8.0 19.3 0.00 0.00 0.00 84 1017.1
20260905203317 25 62 9.7 17.7 0.00 0.00 0.00 85 1016.8
20260905202317 25 60 11.3 16.1 0.00 0.00 0.00 86 1016.8
20260905201319 24 62 9.7 12.9 0.00 0.00 0.00 85 1016.8
20260905200318 24 53 8.0 12.9 0.00 0.05 0.00 87 1016.9
20260905195337 24 57 6.4 11.3 0.00 0.05 0.00 87 1017.1
20260905194315 25 51 6.4 11.3 0.00 0.05 0.00 85 1017.2
20260905193313 25 46 1.6 4.8 0.00 0.05 0.00 84 1017.2
20260905192312 25 113 0.0 6.4 0.00 0.05 0.00 84 1017.2
20260905191327 25 66 1.6 6.4 0.00 0.05 0.00 84 1017.3
20260905190325 25 49 1.6 14.5 0.00 0.05 0.00 85 1017.3
20260905185324 25 50 1.6 12.9 0.00 0.05 0.00 85 1017.3
20260905184322 25 54 3.2 9.7 0.00 0.05 0.00 84 1017.3
20260905183319 24 84 0.0 8.0 0.00 0.05 0.00 86 1017.4
20260905182322 24 118 1.6 16.1 0.00 0.05 0.00 87 1017.4
20260905181325 24 52 9.7 16.1 0.00 0.05 0.00 86 1017.5
20260905180324 25 54 4.8 12.9 0.00 0.05 0.00 87 1017.4
20260905175349 24 46 6.4 14.5 0.00 0.05 0.00 86 1017.3
20260905174328 24 56 9.7 17.7 0.00 0.05 0.00 88 1017.3
20260905173325 24 65 8.0 12.9 0.00 0.05 0.00 87 1017.5
20260905172321 24 59 8.0 11.3 0.00 0.05 0.00 88 1017.5
20260905171318 23 63 8.0 11.3 0.00 0.05 0.00 89 1017.5
20260905170317 23 64 9.7 12.9 0.00 0.05 0.00 89 1017.6
20260905165315 23 47 8.0 11.3 0.00 0.05 0.00 91 1017.7
20260905164313 23 41 6.4 9.7 0.00 0.05 0.00 92 1017.8
20260905163312 23 63 8.0 11.3 0.00 0.05 0.00 92 1017.7
20260905162312 23 58 4.8 9.7 0.00 0.05 0.00 92 1017.6
20260905161314 23 62 1.6 6.4 0.00 0.05 0.00 92 1017.6
20260905160314 23 65 0.0 3.2 0.00 0.05 0.00 92 1017.7
20260905155332 23 39 1.6 6.4 0.00 0.05 0.00 92 1017.6
20260905154310 23 39 0.0 0.0 0.00 0.05 0.00 93 1017.7
20260905153317 22 16 0.0 0.0 0.00 0.05 0.00 93 1017.6
20260905152330 22 146 0.0 1.6 0.00 0.05 0.00 93 1017.4
20260905151329 22 160 1.6 4.8 0.00 0.05 0.00 92 1017.4
20260905150328 23 136 1.6 4.8 0.00 0.05 0.00 93 1017.3
20260905145348 23 146 0.0 1.6 0.00 0.05 0.00 93 1017.2
20260905144330 22 146 0.0 3.2 0.00 0.05 0.00 93 1017.0
20260905143327 22 82 1.6 8.0 0.00 0.05 0.00 93 1016.8
20260905142324 22 58 1.6 6.4 0.00 0.05 0.00 93 1016.7
20260905141320 22 135 1.6 8.0 0.00 0.05 0.00 94 1016.5
20260905140317 22 340 0.0 1.6 0.00 0.05 0.00 94 1016.5
20260905135318 22 58 0.0 3.2 0.00 0.05 0.00 95 1016.5
20260905134349 22 62 0.0 8.0 0.00 0.05 0.00 96 1016.3
20260905133327 22 137 0.0 8.0 0.00 0.05 0.00 96 1016.1
20260905132354 22 102 1.6 8.0 0.00 0.05 0.00 97 1016.1
20260905131332 22 51 0.0 1.6 0.00 0.05 0.00 98 1016.1
20260905130334 22 100 0.0 8.0 0.00 0.05 0.00 98 1016.1
20260905125333 22 148 0.0 0.0 0.00 0.05 0.00 98 1016.0
20260905124331 22 44 1.6 4.8 0.00 0.05 0.00 99 1016.2
20260905123330 22 145 0.0 1.6 0.00 0.05 0.00 99 1016.1
20260905122345 22 117 0.0 0.0 0.00 0.05 0.00 99 1016.1
20260905121324 22 116 0.0 4.8 0.00 0.05 0.00 99 1016.2
20260905120319 22 103 0.0 0.0 0.00 0.05 0.00 100 1015.5
20260905115319 22 91 0.0 3.2 0.00 0.05 0.00 100 1015.2
20260905114339 22 71 0.0 0.0 0.00 0.05 0.00 100 1015.2